Location: Melbourne
(37.8170°S, 144.9670°E)
Time: 11:14:11
(UTC+11:00)

deb Explorer IX - All Passes

Search period start: 05 March 2015 00:00
Search period end: 15 March 2015 00:00
Orbit: 551 x 1172 km, 38.8° (Epoch: 03 March)

Date Brightness Start Highest point End Pass type
(mag) Time Alt. Az. Time Alt. Az. Time Alt. Az.
05 Mar - 11:03:41 10° N 11:07:08 16° NNE 11:10:24 10° ENE daylight
05 Mar - 12:49:24 10° NW 12:54:36 51° NNE 12:59:06 10° E daylight
05 Mar - 14:37:25 10° W 14:42:16 81° S 14:46:33 10° E daylight
05 Mar - 16:25:33 10° W 16:29:58 86° NNW 16:34:08 10° ENE daylight
05 Mar - 18:13:38 10° W 18:17:17 29° NNW 18:20:56 10° NNE daylight
06 Mar - 10:52:05 10° NNW 10:56:15 20° NNE 11:00:06 10° ENE daylight
06 Mar - 12:38:22 10° WNW 12:43:48 58° NNE 12:48:25 10° E daylight
06 Mar - 14:26:34 10° W 14:31:30 79° S 14:35:51 10° E daylight
06 Mar - 16:14:44 10° W 16:19:13 79° NNW 16:23:22 10° ENE daylight
06 Mar - 18:02:59 10° W 18:06:27 25° NNW 18:09:52 10° NNE daylight
07 Mar - 10:40:33 10° NNW 10:45:19 24° NNE 10:49:37 10° E daylight
07 Mar - 12:27:18 10° WNW 12:32:56 66° NNE 12:37:40 10° E daylight
07 Mar - 14:15:38 10° W 14:20:42 78° S 14:25:05 10° E daylight
07 Mar - 16:03:51 10° W 16:08:23 72° NNW 16:12:32 10° ENE daylight
07 Mar - 17:52:20 10° W 17:55:33 21° NNW 17:58:40 10° NNE daylight
08 Mar - 10:29:04 10° NNW 10:34:20 28° NNE 10:38:59 10° E daylight
08 Mar - 12:16:13 10° WNW 12:21:59 72° NNE 12:26:51 10° E daylight
08 Mar - 14:04:38 10° W 14:09:49 78° S 14:14:16 10° E daylight
08 Mar - 15:52:54 10° W 15:57:29 65° NNW 16:01:38 10° ENE daylight
08 Mar - 17:41:40 10° WNW 17:44:35 18° NNW 17:47:21 10° N daylight
09 Mar - 10:17:35 10° NNW 10:23:16 33° NNE 10:28:14 10° E daylight
09 Mar - 12:05:03 10° WNW 12:11:00 79° NNE 12:15:58 10° E daylight
09 Mar - 13:53:35 10° W 13:58:53 79° S 14:03:24 10° E daylight
09 Mar - 15:41:53 10° W 15:46:31 58° NNW 15:50:40 10° ENE daylight
09 Mar - 17:31:03 10° WNW 17:33:32 15° NW 17:35:50 10° N daylight
10 Mar - 08:22:30 10° NNE 08:24:33 12° NE 08:26:51 10° ENE daylight
10 Mar - 10:06:06 10° NW 10:12:09 38° NNE 10:17:22 10° E daylight
10 Mar - 11:53:51 10° WNW 11:59:56 84° N 12:05:02 10° E daylight
10 Mar - 13:42:27 10° W 13:47:53 81° S 13:52:28 10° E daylight
10 Mar - 15:30:48 10° W 15:35:29 52° NNW 15:39:38 10° NE daylight
10 Mar - 17:20:34 10° WNW 17:22:25 12° NW 17:24:05 10° NNW daylight
11 Mar - 08:09:53 10° N 08:13:20 15° NE 08:16:49 10° ENE daylight
11 Mar - 09:54:37 10° NW 10:00:57 44° NNE 10:06:25 10° E daylight
11 Mar - 11:42:35 10° WNW 11:48:50 89° N 11:54:01 10° E daylight
11 Mar - 13:31:15 10° W 13:36:48 84° S 13:41:29 10° E daylight
11 Mar - 15:19:40 10° W 15:24:22 46° NNW 15:28:30 10° NE daylight
11 Mar - 17:10:55 10° NW 17:11:13 10° NW 17:11:20 10° NW daylight
12 Mar - 07:57:39 10° N 08:02:02 18° NE 08:06:18 10° ENE daylight
12 Mar - 09:43:06 10° NW 09:49:43 50° NNE 09:55:23 10° E daylight
12 Mar - 11:31:16 10° W 11:37:39 88° SSW 11:42:57 10° E daylight
12 Mar - 13:19:58 10° W 13:25:40 87° S 13:30:26 10° E daylight
12 Mar - 15:08:28 10° W 15:13:11 40° NNW 15:17:17 10° NE daylight
13 Mar - 07:45:35 10° N 07:50:40 21° NE 07:55:31 10° E daylight
13 Mar - 09:31:34 10° NW 09:38:24 56° NNE 09:44:15 10° E daylight
13 Mar - 11:19:55 10° W 11:26:25 85° S 11:31:50 10° E daylight
13 Mar - 13:08:38 10° W 13:14:27 89° NNW 13:19:18 10° ENE daylight
13 Mar - 14:57:14 10° W 15:01:55 36° NNW 15:05:59 10° NE daylight
14 Mar - 07:33:35 10° NNW 07:39:14 24° NE 07:44:34 10° E daylight
14 Mar - 09:20:01 10° WNW 09:27:01 62° NNE 09:33:03 10° E daylight
14 Mar - 11:08:29 10° W 11:15:07 83° S 11:20:39 10° E daylight
14 Mar - 12:57:13 10° W 13:03:10 85° NNW 13:08:07 10° ENE daylight
14 Mar - 14:45:56 10° W 14:50:34 32° NNW 14:54:35 10° NNE daylight
